Boise, ID

1:19 AM MDT on August 24, 2017 (GMT -0600)
Boise Air Term

Weather History for KBOI - October, 2011

Change the Weather History Date:

Sunday, October 16, 2011

  Actual Average Record
Temperature  
Mean Temperature 53 °F 53 °F  
Max Temperature 59 °F 65 °F 87 °F (1927)
Min Temperature 47 °F 41 °F 22 °F (1984)
Degree Days  
Heating Degree Days 12 12  
Month to date heating degree days 122 153  
Since 1 July heating degree days 132 274  
Cooling Degree Days 0 0  
Month to date cooling degree days 22 7  
Year to date cooling degree days 1076 941  
Growing Degree Days 2 (Base 50)    
Moisture  
Dew Point 51 °F    
Average Humidity 84    
Maximum Humidity 100    
Minimum Humidity 67    
Precipitation  
Precipitation 0.36 in 0.03 in 0.49 in (1947)
Month to date precipitation 1.76 0.34  
Year to date precipitation 9.77 8.42  
Snow  
Snow 0.00 in 0.00 in 0.00 in (2006)
Month to date snowfall 0.0 0.0  
Since 1 July snowfall 0.0 0.0  
Snow Depth 0.00 in    
Sea Level Pressure  
Sea Level Pressure 30.06 in    
Wind  
Wind Speed 4 mph (West)    
Max Wind Speed 10 mph    
Max Gust Speed 12 mph    
Visibility 6 miles    
Events Rain , Thunderstorm    
T = Trace of Precipitation, MM = Missing Value Source: NWS Daily Summary

Daily Weather History Graph

Daily Weather History Graph

Search for Another Location

Airport or City:

Trip Planner

Search our weather history database for the weather conditions in past years. The results will help you decide how hot, cold, wet, or windy it might be!

Date:

Astronomy

Oct. 16, 2011 Rise Set
Actual Time 7:59 AM MDT 7:00 PM MDT
Civil Twilight 7:31 AM MDT 7:29 PM MDT
Nautical Twilight 6:57 AM MDT 8:02 PM MDT
Astronomical Twilight 6:24 AM MDT 8:35 PM MDT
Moon 9:42 PM MDT (10/16) 12:28 PM MDT (10/16)
Length of Visible Light 11h 57m
Length of Day
11h 00m
Waning Gibbous, 82% of the Moon is Illuminated
Oct 16
Waning Gibbous
Oct 19
Last Quarter
Oct 26
New
Nov 2
First Quarter
Nov 10
Full

Hourly Weather History & Observations

Time (MDT) Temp. Dew Point Humidity Pressure Visibility Wind Dir Wind Speed Gust Speed Precip Events Conditions
12:53 AM 57.9 °F 48.0 °F 70% 29.92 in 10.0 mi ESE 5.8 mph - N/A   Clear
1:53 AM 57.9 °F 48.0 °F 70% 29.90 in 10.0 mi SE 6.9 mph - N/A   Clear
2:53 AM 57.9 °F 46.9 °F 67% 29.90 in 10.0 mi SE 5.8 mph - N/A   Clear
3:53 AM 54.0 °F 46.9 °F 77% 29.92 in 10.0 mi NW 8.1 mph - N/A   Partly Cloudy
4:53 AM 53.6 °F 48.2 °F 82% 29.96 in 9.0 mi SSW 3.5 mph - N/A   Clear
5:53 AM 54.0 °F 48.9 °F 83% 29.92 in 8.0 mi SSE 3.5 mph - N/A   Partly Cloudy
6:53 AM 54.0 °F 48.9 °F 83% 29.92 in 6.0 mi Calm Calm - N/A   Haze
7:53 AM 54.0 °F 48.9 °F 83% 29.94 in 7.0 mi NW 5.8 mph - N/A   Mostly Cloudy
8:53 AM 54.0 °F 48.9 °F 83% 29.97 in 6.0 mi WNW 3.5 mph - N/A   Haze
9:53 AM 54.0 °F 50.0 °F 86% 30.01 in 7.0 mi Calm Calm - 0.01 in Rain , Thunderstorm Light Thunderstorms and Rain
10:09 AM 53.6 °F 50.0 °F 88% 30.04 in 7.0 mi North 4.6 mph - 0.00 in   Overcast
10:25 AM 53.6 °F 51.8 °F 94% 30.04 in 3.0 mi Calm Calm - 0.05 in Rain Rain
10:53 AM 54.0 °F 52.0 °F 93% 30.02 in 3.0 mi NNW 3.5 mph - 0.08 in Rain Light Rain
11:09 AM 53.6 °F 51.8 °F 94% 30.07 in 3.0 mi SW 6.9 mph - 0.03 in Rain Light Rain
11:28 AM 53.6 °F 51.8 °F 94% 30.07 in 2.0 mi South 4.6 mph - 0.08 in Rain Rain
11:53 AM 54.0 °F 52.0 °F 93% 30.02 in 3.0 mi NE 4.6 mph - 0.11 in Rain Rain
12:00 PM 53.6 °F 51.8 °F 94% 30.04 in 2.0 mi East 4.6 mph - 0.01 in Rain Light Rain
12:12 PM 55.4 °F 53.6 °F 94% 30.06 in 4.0 mi SSW 4.6 mph - 0.02 in Rain Light Rain
12:24 PM 55.4 °F 51.8 °F 88% 30.08 in 4.0 mi West 9.2 mph - 0.02 in   Overcast
12:29 PM 55.4 °F 53.6 °F 94% 30.08 in 1.8 mi NW 6.9 mph - 0.02 in Rain Rain
12:43 PM 53.6 °F 51.8 °F 94% 30.08 in 3.0 mi WSW 4.6 mph - 0.05 in Rain Light Rain
12:49 PM 53.6 °F 51.8 °F 94% 30.08 in 2.5 mi SW 3.5 mph - 0.06 in Rain Rain
12:53 PM 53.6 °F 51.8 °F 94% 30.07 in 2.0 mi Calm Calm - N/A Rain Rain
1:00 PM 53.6 °F 51.8 °F 94% 30.06 in 2.0 mi South 4.6 mph - 0.01 in Rain Light Rain
1:10 PM 53.6 °F 51.8 °F 94% 30.05 in 4.0 mi Calm Calm - 0.02 in Rain Light Rain
1:53 PM 55.0 °F 53.1 °F 93% 30.03 in 4.0 mi Calm Calm - 0.03 in Rain Light Rain
2:20 PM 55.4 °F 53.6 °F 94% 30.07 in 5.0 mi WNW 3.5 mph - 0.02 in   Overcast
2:28 PM 55.4 °F 53.6 °F 94% 30.07 in 4.0 mi West 3.5 mph - 0.02 in Rain Light Rain
2:51 PM 55.4 °F 53.6 °F 94% 30.06 in 4.0 mi Calm Calm - 0.02 in Rain Light Rain
2:53 PM 55.0 °F 53.1 °F 93% 30.04 in 4.0 mi SW 3.5 mph - 0.02 in Rain Light Rain
3:19 PM 55.4 °F 53.6 °F 94% 30.05 in 4.0 mi South 6.9 mph - 0.01 in   Overcast
3:32 PM 55.4 °F 53.6 °F 94% 30.05 in 6.0 mi South 3.5 mph - 0.01 in Rain Light Rain
3:46 PM 55.4 °F 53.6 °F 94% 30.05 in 5.0 mi Calm Calm - 0.03 in Rain Light Rain
3:53 PM 55.0 °F 52.0 °F 89% 30.04 in 8.0 mi SSW 3.5 mph - 0.03 in Rain Light Rain
4:42 PM 55.4 °F 51.8 °F 88% 30.06 in 9.0 mi Calm Calm - 0.00 in   Overcast
4:53 PM 55.0 °F 52.0 °F 89% 30.03 in 9.0 mi Calm Calm - 0.00 in   Overcast
5:32 PM 55.4 °F 53.6 °F 94% 30.08 in 10.0 mi SSW 3.5 mph - N/A   Overcast
5:53 PM 55.9 °F 52.0 °F 87% 30.06 in 10.0 mi South 4.6 mph - N/A   Overcast
6:05 PM 55.4 °F 51.8 °F 88% 30.08 in 10.0 mi SSW 4.6 mph - N/A   Overcast
6:53 PM 55.9 °F 52.0 °F 87% 30.06 in 10.0 mi Calm Calm - N/A   Overcast
7:26 PM 55.4 °F 51.8 °F 88% 30.10 in 10.0 mi West 4.6 mph - N/A   Mostly Cloudy
7:53 PM 55.0 °F 52.0 °F 89% 30.09 in 10.0 mi West 8.1 mph - N/A   Mostly Cloudy
8:26 PM 53.6 °F 51.8 °F 94% 30.12 in 9.0 mi NW 6.9 mph - N/A   Scattered Clouds
8:43 PM 53.6 °F 51.8 °F 94% 30.13 in 8.0 mi WNW 6.9 mph - N/A   Mostly Cloudy
8:53 PM 54.0 °F 52.0 °F 93% 30.12 in 8.0 mi WNW 8.1 mph - N/A   Overcast
9:28 PM 53.6 °F 51.8 °F 94% 30.15 in 6.0 mi NW 6.9 mph - N/A   Scattered Clouds
9:44 PM 53.6 °F 51.8 °F 94% 30.15 in 4.0 mi WNW 6.9 mph - N/A   Mostly Cloudy
9:53 PM 53.1 °F 51.1 °F 93% 30.14 in 3.0 mi NW 4.6 mph - N/A   Mostly Cloudy
10:33 PM 51.8 °F 51.8 °F 100% 30.18 in 1.8 mi NW 8.1 mph - N/A   Overcast
10:38 PM 51.8 °F 51.8 °F 100% 30.18 in 0.8 mi NW 6.9 mph - N/A   Overcast
10:53 PM 52.0 °F 51.1 °F 97% 30.17 in 1.0 mi NW 8.1 mph - N/A   Mist
10:58 PM 51.8 °F 50.0 °F 94% 30.19 in 2.0 mi NW 8.1 mph - N/A   Overcast
11:08 PM 51.8 °F 50.0 °F 94% 30.19 in 4.0 mi WNW 6.9 mph - N/A   Overcast
11:43 PM 48.2 °F 44.6 °F 87% 30.20 in 10.0 mi WNW 8.1 mph - N/A   Scattered Clouds
11:53 PM 48.9 °F 44.1 °F 83% 30.20 in 10.0 mi WNW 8.1 mph - N/A   Partly Cloudy